Regional Weather Roundup
Issued by NWS Memphis, TN

Home | Current Version | Previous Version | Text Only | Print | Product List | Glossary On
Versions: 1 2 3 4 5 6 7 8 9 10 11 12 13 14 15 16 17 18 19 20 21 22 23 24 25 26 27 28 29 30 31 32 33 34 35 36 37 38 39 40 41 42 43 44 45 46 47 48 49 50
000
ASUS44 KMEG 251110
RWRMEG
MEMPHIS CWA HOURLY WEATHER ROUNDUP
NATIONAL WEATHER SERVICE MEMPHIS TN
600 AM CDT MON MAY 25 2015

...WEST TENNESSEE...

CITY           SKY/WX    TMP DP  RH WIND       PRES   REMARKS
MEMPHIS INTL   LGT RAIN  69  66  90 S9        30.04R
NWS MEMPHIS      N/A     68 N/A N/A MISG        N/A
JACKSON        LGT RAIN  68  65  90 S5        30.08R
LEXINGTON      MOCLDY    66  66 100 S5        30.10R
DYERSBURG      CLOUDY    66  54  63 CALM      30.06R
PARIS          CLOUDY    64  64 100 S7        30.09R


...EASTERN ARKANSAS...

CITY           SKY/WX    TMP DP  RH WIND       PRES   REMARKS
JONESBORO      CLOUDY    68  68 100 S9        30.02R
WEST MEMPHIS   CLOUDY    68  67  96 S14       30.02R
BATESVILLE     CLOUDY    70  66  88 S5        30.00R
NEWPORT        CLOUDY    70  69  96 S8        30.02R
WALNUT RIDGE   CLOUDY    70  66  88 S13       30.00R
BLYTHEVILLE    CLOUDY    69  32  25 S12       30.03R
SEARCY         CLOUDY    70  69  97 S9        30.01R
STUTTGART      CLOUDY    70  66  88 MISG      30.02R
PINE BLUFF     CLOUDY    70  68  93 S9        30.01R
MONTICELLO     CLOUDY    70  68  93 S7        30.02R


...NORTH MISSISSIPPI...

CITY           SKY/WX    TMP DP  RH WIND       PRES   REMARKS
TUPELO         CLOUDY    69  66  90 SE7       30.09R
OXFORD         CLOUDY    64  64 100 SE5       30.08R
OLIVE BRANCH   CLOUDY    66 N/A N/A S7        30.06R
TUNICA         CLOUDY    68  66  94 S5        30.05R
CLARKSDALE     CLOUDY    68  68 100 CALM      30.05R
CORINTH        DRIZZLE   70  66  88 SE9       30.10R
GREENWOOD        N/A    N/A N/A N/A MISG      30.04S
COLUMBUS       LGT RAIN  70  70 100 S6        30.08R
STARKVILLE     LGT RAIN  68  66  94 CALM      30.07F
GOLDEN TRIANGL CLOUDY    72  70  94 S12       30.08R


...SOUTHEAST MISSOURI...

CITY           SKY/WX    TMP DP  RH WIND       PRES   REMARKS
WEST PLAINS    CLOUDY    68  64  87 S7        29.99R
POPLAR BLUFF   RAIN      68  66  93 S8        30.00R FOG
CAPE GIRARDEAU CLOUDY    69  66  90 S14G24    30.00S


...NORTHWEST ALABAMA...

CITY           SKY/WX    TMP DP  RH WIND       PRES   REMARKS
MUSCLE SHOALS  LGT RAIN  70  64  81 S7        30.15R


...MIDDLE TENNESSEE...

CITY           SKY/WX    TMP DP  RH WIND       PRES   REMARKS
NASHVILLE      CLOUDY    72  59  63 S14       30.14R
CLARKSVILLE    RAIN      67  66  97 S7        30.12R FOG
COLUMBIA       CLOUDY    70  63  78 S10       30.12R


...WESTERN KENTUCKY...

CITY           SKY/WX    TMP DP  RH WIND       PRES   REMARKS
PADUCAH        LGT RAIN  68  65  90 VRB7      30.04R
FORT CAMPBELL  LGT RAIN  68  66  94 S8        30.10R FOG


...CENTRAL ARKANSAS...

CITY           SKY/WX    TMP DP  RH WIND       PRES   REMARKS
LITTLE ROCK    CLOUDY    71  67  87 S6        30.00R


SKY/WX REPORTED AS FAIR MEANS FEW OR NO CLOUDS BELOW
12 THOUSAND FEET.




USA.gov is the U.S. government's official web portal to all federal, state and local government web resources and services.